contact:dominique.lefevre@mio.osupytheas.fr, maurice.libes@osupytheas.fr, didier.mallarino@osupytheas.fr
Project:EMSO http://www.emso-fr.org/EMSO-France
Depth: 2436.0 m
Title:EMSO Ligure Ouest : Data MII capteur CSTAR
DateTime,Latitude,Longitude,Instrument_Serial,Reference_Counts,Signal_Counts,Corrected_Signal_raw_counts,Calculated_Beam_c_inverse_meters,Internal_thermistor_counts
DateTime,Latitude,Longitude,Instrument_Serial,Reference_Counts,Signal_Counts,Corrected_Signal_raw_counts,Calculated_Beam_c_inverse_meters,Internal_thermistor_counts
2023-03-10T00:00:10,42.805,6.029,CST-1368DR,4358,4742,11558,01.204,551
2023-03-10T00:03:12,42.805,6.029,CST-1368DR,4358,4744,11562,01.202,551
2023-03-10T00:06:14,42.805,6.029,CST-1368DR,4358,4744,11564,01.202,551
2023-03-10T00:09:15,42.805,6.029,CST-1368DR,4358,4745,11566,01.201,551
2023-03-10T00:12:17,42.805,6.029,CST-1368DR,4358,4745,11565,01.201,551
2023-03-10T00:15:18,42.805,6.029,CST-1368DR,4358,4745,11566,01.201,551
2023-03-10T00:18:20,42.805,6.029,CST-1368DR,4358,4744,11563,01.202,551
2023-03-10T00:21:22,42.805,6.029,CST-1368DR,4358,4743,11562,01.202,551
2023-03-10T00:24:23,42.805,6.029,CST-1368DR,4358,4743,11562,01.202,551
2023-03-10T00:27:25,42.805,6.029,CST-1368DR,4358,4744,11562,01.202,551
2023-03-10T00:30:26,42.805,6.029,CST-1368DR,4358,4744,11564,01.202,551
2023-03-10T00:33:28,42.805,6.029,CST-1368DR,4358,4741,11555,01.205,551
2023-03-10T00:36:29,42.805,6.029,CST-1368DR,4358,4743,11560,01.203,551
2023-03-10T00:39:31,42.805,6.029,CST-1368DR,4358,4743,11560,01.203,551
2023-03-10T00:42:33,42.805,6.029,CST-1368DR,4358,4742,11559,01.203,551
2023-03-10T00:45:34,42.805,6.029,CST-1368DR,4358,4740,11554,01.205,551
2023-03-10T00:48:36,42.805,6.029,CST-1368DR,4358,4743,11562,01.202,551
2023-03-10T00:51:37,42.805,6.029,CST-1368DR,4358,4738,11550,01.206,551
2023-03-10T00:54:39,42.805,6.029,CST-1368DR,4358,4743,11562,01.202,551
2023-03-10T00:57:40,42.805,6.029,CST-1368DR,4358,4742,11559,01.203,551
2023-03-10T01:00:42,42.805,6.029,CST-1368DR,4358,4743,11560,01.203,551
2023-03-10T01:03:44,42.805,6.029,CST-1368DR,4358,4744,11563,01.202,551
2023-03-10T01:06:45,42.805,6.029,CST-1368DR,4358,4743,11561,01.203,551
2023-03-10T01:09:47,42.805,6.029,CST-1368DR,4358,4738,11549,01.207,551
2023-03-10T01:12:48,42.805,6.029,CST-1368DR,4358,4740,11554,01.205,551
2023-03-10T01:15:50,42.805,6.029,CST-1368DR,4358,4742,11558,01.204,551
2023-03-10T01:18:51,42.805,6.029,CST-1368DR,4358,4740,11553,01.205,551
2023-03-10T01:21:53,42.805,6.029,CST-1368DR,4358,4742,11559,01.203,551
2023-03-10T01:24:55,42.805,6.029,CST-1368DR,4358,4742,11559,01.203,551
2023-03-10T01:27:56,42.805,6.029,CST-1368DR,4358,4742,11558,01.204,551
2023-03-10T01:30:58,42.805,6.029,CST-1368DR,4358,4743,11561,01.203,551
2023-03-10T01:33:59,42.805,6.029,CST-1368DR,4358,4741,11556,01.204,551
2023-03-10T01:37:01,42.805,6.029,CST-1368DR,4358,4742,11557,01.204,551
2023-03-10T01:40:03,42.805,6.029,CST-1368DR,4358,4740,11553,01.205,551
2023-03-10T01:43:04,42.805,6.029,CST-1368DR,4358,4738,11550,01.206,551
2023-03-10T01:46:06,42.805,6.029,CST-1368DR,4358,4739,11552,01.206,551
2023-03-10T01:49:07,42.805,6.029,CST-1368DR,4358,4740,11553,01.205,551
2023-03-10T01:52:09,42.805,6.029,CST-1368DR,4358,4747,11571,01.199,551
2023-03-10T01:55:10,42.805,6.029,CST-1368DR,4358,4740,11553,01.205,551
2023-03-10T01:58:12,42.805,6.029,CST-1368DR,4358,4742,11559,01.203,551
2023-03-10T02:01:14,42.805,6.029,CST-1368DR,4358,4740,11554,01.205,551
2023-03-10T02:04:15,42.805,6.029,CST-1368DR,4358,4743,11561,01.203,551
2023-03-10T02:07:17,42.805,6.029,CST-1368DR,4358,4743,11560,01.203,551
2023-03-10T02:10:18,42.805,6.029,CST-1368DR,4358,4758,11597,01.190,551
2023-03-10T02:13:20,42.805,6.029,CST-1368DR,4358,4745,11566,01.201,551
2023-03-10T02:16:21,42.805,6.029,CST-1368DR,4358,4750,11577,01.197,551
2023-03-10T02:19:23,42.805,6.029,CST-1368DR,4358,4745,11565,01.201,551
2023-03-10T02:22:25,42.805,6.029,CST-1368DR,4358,4751,11580,01.196,551
2023-03-10T02:25:26,42.805,6.029,CST-1368DR,4358,4746,11569,01.200,551
2023-03-10T02:28:28,42.805,6.029,CST-1368DR,4358,4744,11562,01.202,551
2023-03-10T02:31:29,42.805,6.029,CST-1368DR,4358,4744,11562,01.202,551
2023-03-10T02:34:31,42.805,6.029,CST-1368DR,4358,4745,11566,01.201,551
2023-03-10T02:37:33,42.805,6.029,CST-1368DR,4358,4745,11566,01.201,551
2023-03-10T02:40:34,42.805,6.029,CST-1368DR,4358,4747,11571,01.199,551
2023-03-10T02:43:36,42.805,6.029,CST-1368DR,4358,4747,11570,01.200,551
2023-03-10T02:46:37,42.805,6.029,CST-1368DR,4358,4752,11582,01.195,551
2023-03-10T02:49:39,42.805,6.029,CST-1368DR,4358,4749,11574,01.198,551
2023-03-10T02:52:40,42.805,6.029,CST-1368DR,4358,4747,11570,01.200,551
2023-03-10T02:55:42,42.805,6.029,CST-1368DR,4358,4744,11564,01.202,551
2023-03-10T02:58:44,42.805,6.029,CST-1368DR,4358,4749,11575,01.198,551
2023-03-10T03:01:45,42.805,6.029,CST-1368DR,4358,4750,11577,01.197,551
2023-03-10T03:04:47,42.805,6.029,CST-1368DR,4358,4748,11573,01.198,551
2023-03-10T03:07:48,42.805,6.029,CST-1368DR,4358,4745,11566,01.201,551
2023-03-10T03:10:50,42.805,6.029,CST-1368DR,4358,4746,11568,01.200,551
2023-03-10T03:13:51,42.805,6.029,CST-1368DR,4358,4748,11574,01.198,551
2023-03-10T03:16:53,42.805,6.029,CST-1368DR,4358,4748,11572,01.199,551
2023-03-10T03:19:55,42.805,6.029,CST-1368DR,4358,4750,11579,01.196,551
2023-03-10T03:22:56,42.805,6.029,CST-1368DR,4358,4746,11568,01.200,551
2023-03-10T03:25:58,42.805,6.029,CST-1368DR,4358,4747,11571,01.199,551
2023-03-10T03:28:59,42.805,6.029,CST-1368DR,4358,4739,11551,01.206,551
2023-03-10T03:32:01,42.805,6.029,CST-1368DR,4358,4741,11556,01.204,551
2023-03-10T03:35:03,42.805,6.029,CST-1368DR,4358,4744,11564,01.202,551
2023-03-10T03:38:04,42.805,6.029,CST-1368DR,4358,4747,11570,01.200,551
2023-03-10T03:41:06,42.805,6.029,CST-1368DR,4358,4746,11568,01.200,551
2023-03-10T03:44:07,42.805,6.029,CST-1368DR,4358,4749,11574,01.198,551
2023-03-10T03:47:09,42.805,6.029,CST-1368DR,4358,4747,11571,01.199,551
2023-03-10T03:50:10,42.805,6.029,CST-1368DR,4358,4742,11559,01.203,551
2023-03-10T03:53:12,42.805,6.029,CST-1368DR,4358,4752,11582,01.195,551
2023-03-10T03:56:14,42.805,6.029,CST-1368DR,4358,4750,11579,01.196,551
2023-03-10T03:59:15,42.805,6.029,CST-1368DR,4358,4746,11569,01.200,551
2023-03-10T04:02:17,42.805,6.029,CST-1368DR,4358,4749,11574,01.198,551
2023-03-10T04:05:18,42.805,6.029,CST-1368DR,4358,4747,11571,01.199,551
2023-03-10T04:08:20,42.805,6.029,CST-1368DR,4358,4748,11574,01.198,551
2023-03-10T04:11:22,42.805,6.029,CST-1368DR,4358,4742,11559,01.203,551
2023-03-10T04:14:23,42.805,6.029,CST-1368DR,4358,4749,11574,01.198,551
2023-03-10T04:17:25,42.805,6.029,CST-1368DR,4358,4749,11576,01.197,551
2023-03-10T04:20:26,42.805,6.029,CST-1368DR,4358,4744,11564,01.202,551
2023-03-10T04:23:28,42.805,6.029,CST-1368DR,4358,4750,11579,01.196,551
2023-03-10T04:26:29,42.805,6.029,CST-1368DR,4358,4750,11578,01.197,551
2023-03-10T04:29:31,42.805,6.029,CST-1368DR,4358,4747,11571,01.199,551
2023-03-10T04:32:33,42.805,6.029,CST-1368DR,4358,4744,11563,01.202,551
2023-03-10T04:35:34,42.805,6.029,CST-1368DR,4358,4752,11582,01.195,551
2023-03-10T04:38:36,42.805,6.029,CST-1368DR,4358,4747,11570,01.200,551
2023-03-10T04:41:37,42.805,6.029,CST-1368DR,4358,4753,11585,01.194,551
2023-03-10T04:44:39,42.805,6.029,CST-1368DR,4358,4749,11575,01.198,551
2023-03-10T04:47:40,42.805,6.029,CST-1368DR,4358,4746,11568,01.200,551
2023-03-10T04:50:42,42.805,6.029,CST-1368DR,4358,4749,11575,01.198,551
2023-03-10T04:53:44,42.805,6.029,CST-1368DR,4358,4748,11572,01.199,551
2023-03-10T04:56:45,42.805,6.029,CST-1368DR,4358,4747,11571,01.199,551
2023-03-10T04:59:47,42.805,6.029,CST-1368DR,4358,4750,11579,01.196,551
2023-03-10T05:02:48,42.805,6.029,CST-1368DR,4358,4750,11578,01.197,551
2023-03-10T05:05:50,42.805,6.029,CST-1368DR,4358,4752,11582,01.195,551
2023-03-10T05:08:51,42.805,6.029,CST-1368DR,4358,4750,11578,01.197,551
2023-03-10T05:11:53,42.805,6.029,CST-1368DR,4358,4750,11577,01.197,551
2023-03-10T05:14:55,42.805,6.029,CST-1368DR,4358,4753,11585,01.194,551
2023-03-10T05:17:56,42.805,6.029,CST-1368DR,4358,4753,11585,01.194,551
2023-03-10T05:20:58,42.805,6.029,CST-1368DR,4358,4752,11582,01.195,551
2023-03-10T05:23:59,42.805,6.029,CST-1368DR,4358,4749,11574,01.198,551
2023-03-10T05:27:01,42.805,6.029,CST-1368DR,4358,4753,11585,01.194,551
2023-03-10T05:30:03,42.805,6.029,CST-1368DR,4358,4751,11580,01.196,551
2023-03-10T05:33:04,42.805,6.029,CST-1368DR,4358,4750,11579,01.196,551
2023-03-10T05:36:06,42.805,6.029,CST-1368DR,4358,4753,11585,01.194,551
2023-03-10T05:39:07,42.805,6.029,CST-1368DR,4358,4750,11577,01.197,551
2023-03-10T05:42:09,42.805,6.029,CST-1368DR,4358,4744,11563,01.202,551
2023-03-10T05:45:10,42.805,6.029,CST-1368DR,4358,4753,11584,01.195,551
2023-03-10T05:48:12,42.805,6.029,CST-1368DR,4358,4747,11570,01.200,551
2023-03-10T05:51:14,42.805,6.029,CST-1368DR,4358,4750,11578,01.197,551
2023-03-10T05:54:15,42.805,6.029,CST-1368DR,4358,4746,11569,01.200,551
2023-03-10T05:57:17,42.805,6.029,CST-1368DR,4358,4761,11606,01.187,551
2023-03-10T06:00:18,42.805,6.029,CST-1368DR,4358,4754,11588,01.193,551
2023-03-10T06:03:20,42.805,6.029,CST-1368DR,4358,4753,11585,01.194,551
2023-03-10T06:06:21,42.805,6.029,CST-1368DR,4358,4739,11551,01.206,551
2023-03-10T06:09:23,42.805,6.029,CST-1368DR,4358,4752,11582,01.195,551
2023-03-10T06:12:25,42.805,6.029,CST-1368DR,4358,4749,11576,01.197,551
2023-03-10T06:15:26,42.805,6.029,CST-1368DR,4358,4752,11583,01.195,551
2023-03-10T06:18:28,42.805,6.029,CST-1368DR,4358,4750,11579,01.196,551
2023-03-10T06:21:29,42.805,6.029,CST-1368DR,4358,4750,11578,01.197,551
2023-03-10T06:24:31,42.805,6.029,CST-1368DR,4358,4752,11583,01.195,551
2023-03-10T06:27:33,42.805,6.029,CST-1368DR,4358,4748,11574,01.198,551
2023-03-10T06:30:34,42.805,6.029,CST-1368DR,4358,4749,11575,01.198,551
2023-03-10T06:33:36,42.805,6.029,CST-1368DR,4358,4750,11578,01.197,551
2023-03-10T06:36:37,42.805,6.029,CST-1368DR,4358,4751,11581,01.196,551
2023-03-10T06:39:39,42.805,6.029,CST-1368DR,4358,4757,11594,01.191,551
2023-03-10T06:42:40,42.805,6.029,CST-1368DR,4358,4750,11577,01.197,551
2023-03-10T06:45:42,42.805,6.029,CST-1368DR,4358,4750,11577,01.197,551
2023-03-10T06:48:44,42.805,6.029,CST-1368DR,4358,4749,11576,01.197,551
2023-03-10T06:51:45,42.805,6.029,CST-1368DR,4358,4747,11571,01.199,551
2023-03-10T06:54:47,42.805,6.029,CST-1368DR,4358,4748,11574,01.198,551
2023-03-10T06:57:48,42.805,6.029,CST-1368DR,4358,4745,11566,01.201,551
2023-03-10T07:00:50,42.805,6.029,CST-1368DR,4358,4746,11567,01.201,551
2023-03-10T07:03:51,42.805,6.029,CST-1368DR,4358,4745,11565,01.201,551
2023-03-10T07:06:53,42.805,6.029,CST-1368DR,4358,4746,11568,01.200,551
2023-03-10T07:09:55,42.805,6.029,CST-1368DR,4358,4747,11570,01.200,551
2023-03-10T07:12:56,42.805,6.029,CST-1368DR,4358,4752,11582,01.195,551
2023-03-10T07:15:58,42.805,6.029,CST-1368DR,4358,4746,11567,01.201,551
2023-03-10T07:18:59,42.805,6.029,CST-1368DR,4358,4745,11567,01.201,551
2023-03-10T07:22:01,42.805,6.029,CST-1368DR,4358,4747,11571,01.199,551
2023-03-10T07:25:03,42.805,6.029,CST-1368DR,4358,4747,11570,01.200,551
2023-03-10T07:28:04,42.805,6.029,CST-1368DR,4358,4745,11567,01.201,551
2023-03-10T07:31:06,42.805,6.029,CST-1368DR,4358,4737,11545,01.208,551
2023-03-10T07:34:07,42.805,6.029,CST-1368DR,4358,4745,11565,01.201,551
2023-03-10T07:37:09,42.805,6.029,CST-1368DR,4358,4744,11564,01.202,551
2023-03-10T07:40:10,42.805,6.029,CST-1368DR,4358,4747,11570,01.200,551
2023-03-10T07:43:12,42.805,6.029,CST-1368DR,4358,4744,11562,01.202,551
2023-03-10T07:46:14,42.805,6.029,CST-1368DR,4358,4746,11567,01.201,551
2023-03-10T07:49:15,42.805,6.029,CST-1368DR,4358,4747,11571,01.199,551
2023-03-10T07:52:17,42.805,6.029,CST-1368DR,4358,4746,11568,01.200,551
2023-03-10T07:55:18,42.805,6.029,CST-1368DR,4358,4748,11574,01.198,551
2023-03-10T07:58:20,42.805,6.029,CST-1368DR,4358,4748,11572,01.199,551
2023-03-10T08:01:21,42.805,6.029,CST-1368DR,4358,4755,11590,01.193,551
2023-03-10T08:04:23,42.805,6.029,CST-1368DR,4358,4751,11580,01.196,551
2023-03-10T08:07:25,42.805,6.029,CST-1368DR,4358,4750,11579,01.196,551
2023-03-10T08:10:26,42.805,6.029,CST-1368DR,4358,4749,11576,01.197,551
2023-03-10T08:13:28,42.805,6.029,CST-1368DR,4358,4748,11574,01.198,551
2023-03-10T08:16:29,42.805,6.029,CST-1368DR,4358,4749,11576,01.197,551
2023-03-10T08:19:31,42.805,6.029,CST-1368DR,4358,4748,11572,01.199,551
2023-03-10T08:22:32,42.805,6.029,CST-1368DR,4358,4750,11578,01.197,551
2023-03-10T08:25:34,42.805,6.029,CST-1368DR,4358,4747,11570,01.200,551
2023-03-10T08:28:36,42.805,6.029,CST-1368DR,4358,4750,11577,01.197,551
2023-03-10T08:31:37,42.805,6.029,CST-1368DR,4358,4749,11574,01.198,551
2023-03-10T08:34:39,42.805,6.029,CST-1368DR,4358,4748,11574,01.198,551
2023-03-10T08:37:40,42.805,6.029,CST-1368DR,4358,4749,11576,01.197,551
2023-03-10T08:40:42,42.805,6.029,CST-1368DR,4358,4750,11579,01.196,551
2023-03-10T08:43:44,42.805,6.029,CST-1368DR,4358,4749,11576,01.197,551
2023-03-10T08:46:45,42.805,6.029,CST-1368DR,4358,4751,11579,01.196,551
2023-03-10T08:49:47,42.805,6.029,CST-1368DR,4358,4751,11581,01.196,551
2023-03-10T08:52:48,42.805,6.029,CST-1368DR,4358,4749,11574,01.198,551
2023-03-10T08:55:50,42.805,6.029,CST-1368DR,4358,4748,11574,01.198,551
2023-03-10T08:58:51,42.805,6.029,CST-1368DR,4358,4748,11573,01.198,551
2023-03-10T09:01:53,42.805,6.029,CST-1368DR,4358,4750,11578,01.197,551
2023-03-10T09:04:55,42.805,6.029,CST-1368DR,4358,4746,11567,01.201,551
2023-03-10T09:07:56,42.805,6.029,CST-1368DR,4358,4742,11557,01.204,551
2023-03-10T09:10:58,42.805,6.029,CST-1368DR,4358,4749,11574,01.198,551
2023-03-10T09:13:59,42.805,6.029,CST-1368DR,4358,4746,11569,01.200,551
2023-03-10T09:17:01,42.805,6.029,CST-1368DR,4358,4751,11581,01.196,551
2023-03-10T09:20:02,42.805,6.029,CST-1368DR,4358,4747,11571,01.199,551
2023-03-10T09:23:04,42.805,6.029,CST-1368DR,4358,4749,11576,01.197,551
2023-03-10T09:26:06,42.805,6.029,CST-1368DR,4358,4750,11577,01.197,551
2023-03-10T09:29:07,42.805,6.029,CST-1368DR,4358,4748,11572,01.199,551
2023-03-10T09:32:09,42.805,6.029,CST-1368DR,4358,4743,11560,01.203,551
2023-03-10T09:35:10,42.805,6.029,CST-1368DR,4358,4750,11578,01.197,551
2023-03-10T09:38:12,42.805,6.029,CST-1368DR,4358,4733,11537,01.211,551
2023-03-10T09:41:14,42.805,6.029,CST-1368DR,4358,4748,11574,01.198,551
2023-03-10T09:44:15,42.805,6.029,CST-1368DR,4358,4740,11553,01.205,551
2023-03-10T09:47:17,42.805,6.029,CST-1368DR,4358,4747,11571,01.199,551
2023-03-10T09:50:18,42.805,6.029,CST-1368DR,4358,4747,11570,01.200,551
2023-03-10T09:53:20,42.805,6.029,CST-1368DR,4358,4741,11556,01.204,551
2023-03-10T09:56:21,42.805,6.029,CST-1368DR,4358,4749,11574,01.198,551
2023-03-10T09:59:23,42.805,6.029,CST-1368DR,4358,4749,11576,01.197,551
2023-03-10T10:02:25,42.805,6.029,CST-1368DR,4358,4747,11570,01.200,551
2023-03-10T10:05:26,42.805,6.029,CST-1368DR,4358,4753,11584,01.195,551
2023-03-10T10:08:28,42.805,6.029,CST-1368DR,4358,4746,11568,01.200,551
2023-03-10T10:11:29,42.805,6.029,CST-1368DR,4358,4751,11580,01.196,551
2023-03-10T10:14:31,42.805,6.029,CST-1368DR,4358,4749,11575,01.198,551
2023-03-10T10:17:32,42.805,6.029,CST-1368DR,4358,4751,11579,01.196,551
2023-03-10T10:20:34,42.805,6.029,CST-1368DR,4358,4749,11576,01.197,551
2023-03-10T10:23:36,42.805,6.029,CST-1368DR,4358,4752,11582,01.195,551
2023-03-10T10:26:37,42.805,6.029,CST-1368DR,4358,4749,11576,01.197,551
2023-03-10T10:29:39,42.805,6.029,CST-1368DR,4358,4748,11573,01.198,551
2023-03-10T10:32:40,42.805,6.029,CST-1368DR,4358,4753,11584,01.195,551
2023-03-10T10:35:42,42.805,6.029,CST-1368DR,4358,4751,11580,01.196,551
2023-03-10T10:38:44,42.805,6.029,CST-1368DR,4358,4750,11577,01.197,551
2023-03-10T10:41:45,42.805,6.029,CST-1368DR,4358,4745,11565,01.201,551
2023-03-10T10:44:47,42.805,6.029,CST-1368DR,4358,4746,11568,01.200,551
2023-03-10T10:47:48,42.805,6.029,CST-1368DR,4358,4749,11576,01.197,551
2023-03-10T10:50:50,42.805,6.029,CST-1368DR,4358,4748,11574,01.198,551
2023-03-10T10:53:51,42.805,6.029,CST-1368DR,4358,4749,11576,01.197,551
2023-03-10T10:56:53,42.805,6.029,CST-1368DR,4358,4749,11575,01.198,551
2023-03-10T10:59:55,42.805,6.029,CST-1368DR,4358,4747,11570,01.200,551
2023-03-10T11:02:56,42.805,6.029,CST-1368DR,4358,4748,11574,01.198,551
2023-03-10T11:05:58,42.805,6.029,CST-1368DR,4358,4748,11573,01.198,551
2023-03-10T11:08:59,42.805,6.029,CST-1368DR,4358,4747,11571,01.199,551
2023-03-10T11:12:01,42.805,6.029,CST-1368DR,4358,4747,11570,01.200,551
2023-03-10T11:15:02,42.805,6.029,CST-1368DR,4358,4753,11584,01.195,551
2023-03-10T11:18:04,42.805,6.029,CST-1368DR,4358,4745,11566,01.201,551
2023-03-10T11:21:06,42.805,6.029,CST-1368DR,4358,4750,11577,01.197,551
2023-03-10T11:24:07,42.805,6.029,CST-1368DR,4358,4752,11582,01.195,551
2023-03-10T11:27:09,42.805,6.029,CST-1368DR,4358,4747,11570,01.200,551
2023-03-10T11:30:10,42.805,6.029,CST-1368DR,4358,4749,11576,01.197,551
2023-03-10T11:33:12,42.805,6.029,CST-1368DR,4358,4749,11575,01.198,551
2023-03-10T11:36:14,42.805,6.029,CST-1368DR,4358,4751,11581,01.196,551
2023-03-10T11:39:15,42.805,6.029,CST-1368DR,4358,4749,11574,01.198,551
2023-03-10T11:42:17,42.805,6.029,CST-1368DR,4358,4746,11568,01.200,551
2023-03-10T11:45:18,42.805,6.029,CST-1368DR,4358,4749,11576,01.197,551
2023-03-10T11:48:20,42.805,6.029,CST-1368DR,4358,4746,11568,01.200,551
2023-03-10T11:51:21,42.805,6.029,CST-1368DR,4358,4748,11574,01.198,551
2023-03-10T11:54:23,42.805,6.029,CST-1368DR,4358,4747,11570,01.200,551
2023-03-10T11:57:25,42.805,6.029,CST-1368DR,4358,4750,11578,01.197,551
2023-03-10T12:00:26,42.805,6.029,CST-1368DR,4358,4746,11568,01.200,551
2023-03-10T12:03:28,42.805,6.029,CST-1368DR,4358,4749,11575,01.198,551
2023-03-10T12:06:29,42.805,6.029,CST-1368DR,4358,4752,11582,01.195,551
2023-03-10T12:09:31,42.805,6.029,CST-1368DR,4358,4749,11575,01.198,551
2023-03-10T12:12:32,42.805,6.029,CST-1368DR,4358,4742,11559,01.203,551
2023-03-10T12:15:34,42.805,6.029,CST-1368DR,4358,4744,11562,01.202,551
2023-03-10T12:18:36,42.805,6.029,CST-1368DR,4358,4752,11584,01.195,551
2023-03-10T12:21:37,42.805,6.029,CST-1368DR,4358,4743,11562,01.202,551
2023-03-10T12:24:39,42.805,6.029,CST-1368DR,4358,4748,11573,01.198,551
2023-03-10T12:27:40,42.805,6.029,CST-1368DR,4358,4748,11572,01.199,551
2023-03-10T12:30:42,42.805,6.029,CST-1368DR,4358,4746,11569,01.200,551
2023-03-10T12:33:44,42.805,6.029,CST-1368DR,4358,4750,11577,01.197,551
2023-03-10T12:36:45,42.805,6.029,CST-1368DR,4358,4749,11575,01.198,551
2023-03-10T12:39:47,42.805,6.029,CST-1368DR,4358,4756,11592,01.192,551
2023-03-10T12:42:48,42.805,6.029,CST-1368DR,4358,4748,11572,01.199,551
2023-03-10T12:45:50,42.805,6.029,CST-1368DR,4358,4747,11570,01.200,551
2023-03-10T12:48:51,42.805,6.029,CST-1368DR,4358,4751,11580,01.196,551
2023-03-10T12:51:53,42.805,6.029,CST-1368DR,4358,4750,11578,01.197,551
2023-03-10T12:54:55,42.805,6.029,CST-1368DR,4358,4753,11584,01.195,551
2023-03-10T12:57:56,42.805,6.029,CST-1368DR,4358,4746,11568,01.200,551
2023-03-10T13:00:58,42.805,6.029,CST-1368DR,4358,4745,11566,01.201,551
2023-03-10T13:03:59,42.805,6.029,CST-1368DR,4358,4746,11568,01.200,551
2023-03-10T13:07:01,42.805,6.029,CST-1368DR,4358,4749,11575,01.198,551
2023-03-10T13:10:02,42.805,6.029,CST-1368DR,4358,4748,11572,01.199,551
2023-03-10T13:13:04,42.805,6.029,CST-1368DR,4358,4749,11575,01.198,551
2023-03-10T13:16:06,42.805,6.029,CST-1368DR,4358,4751,11579,01.196,551
2023-03-10T13:19:07,42.805,6.029,CST-1368DR,4358,4746,11569,01.200,551
2023-03-10T13:22:09,42.805,6.029,CST-1368DR,4358,4748,11574,01.198,551
2023-03-10T13:25:10,42.805,6.029,CST-1368DR,4358,4742,11557,01.204,551
2023-03-10T13:28:12,42.805,6.029,CST-1368DR,4358,4746,11569,01.200,551
2023-03-10T13:31:13,42.805,6.029,CST-1368DR,4358,4748,11572,01.199,551
2023-03-10T13:34:15,42.805,6.029,CST-1368DR,4358,4746,11567,01.201,551
2023-03-10T13:37:17,42.805,6.029,CST-1368DR,4358,4744,11564,01.202,551
2023-03-10T13:40:18,42.805,6.029,CST-1368DR,4358,4740,11553,01.205,551
2023-03-10T13:43:20,42.805,6.029,CST-1368DR,4358,4748,11573,01.198,551
2023-03-10T13:46:21,42.805,6.029,CST-1368DR,4358,4747,11571,01.199,551
2023-03-10T13:49:23,42.805,6.029,CST-1368DR,4357,4740,11556,01.204,551
2023-03-10T13:52:25,42.805,6.029,CST-1368DR,4358,4740,11553,01.205,551
2023-03-10T13:55:26,42.805,6.029,CST-1368DR,4358,4745,11566,01.201,551
2023-03-10T13:58:28,42.805,6.029,CST-1368DR,4358,4752,11583,01.195,551
2023-03-10T14:01:29,42.805,6.029,CST-1368DR,4358,4745,11566,01.201,551
2023-03-10T14:04:31,42.805,6.029,CST-1368DR,4357,4716,11498,01.224,551
2023-03-10T14:07:32,42.805,6.029,CST-1368DR,4358,4743,11562,01.202,551
2023-03-10T14:10:34,42.805,6.029,CST-1368DR,4358,4747,11570,01.200,551
2023-03-10T14:13:36,42.805,6.029,CST-1368DR,4358,4748,11574,01.198,551
2023-03-10T14:16:37,42.805,6.029,CST-1368DR,4358,4747,11570,01.200,551
2023-03-10T14:19:39,42.805,6.029,CST-1368DR,4358,4743,11562,01.202,551
2023-03-10T14:22:40,42.805,6.029,CST-1368DR,4358,4742,11558,01.204,551
2023-03-10T14:25:42,42.805,6.029,CST-1368DR,4358,4743,11561,01.203,551
2023-03-10T14:28:43,42.805,6.029,CST-1368DR,4358,4740,11553,01.205,551
2023-03-10T14:31:45,42.805,6.029,CST-1368DR,4358,4745,11567,01.201,551
2023-03-10T14:34:47,42.805,6.029,CST-1368DR,4358,4749,11575,01.198,551
2023-03-10T14:37:48,42.805,6.029,CST-1368DR,4358,4745,11565,01.201,551
2023-03-10T14:40:50,42.805,6.029,CST-1368DR,4358,4743,11561,01.203,551
2023-03-10T14:43:51,42.805,6.029,CST-1368DR,4358,4742,11557,01.204,551
2023-03-10T14:46:53,42.805,6.029,CST-1368DR,4358,4745,11566,01.201,551
2023-03-10T14:49:55,42.805,6.029,CST-1368DR,4358,4744,11563,01.202,551
2023-03-10T14:52:56,42.805,6.029,CST-1368DR,4358,4742,11557,01.204,551
2023-03-10T14:55:58,42.805,6.029,CST-1368DR,4358,4735,11542,01.209,551
2023-03-10T14:58:59,42.805,6.029,CST-1368DR,4357,4735,11545,01.208,551
2023-03-10T15:02:01,42.805,6.029,CST-1368DR,4358,4730,11529,01.214,551
2023-03-10T15:05:02,42.805,6.029,CST-1368DR,4358,4742,11557,01.204,551
2023-03-10T15:08:04,42.805,6.029,CST-1368DR,4358,4734,11539,01.210,551
2023-03-10T15:11:06,42.805,6.029,CST-1368DR,4358,4736,11543,01.209,551
2023-03-10T15:14:07,42.805,6.029,CST-1368DR,4357,4732,11536,01.211,551
2023-03-10T15:17:09,42.805,6.029,CST-1368DR,4357,4733,11538,01.211,551
2023-03-10T15:20:10,42.805,6.029,CST-1368DR,4357,4725,11520,01.217,551
2023-03-10T15:23:12,42.805,6.029,CST-1368DR,4357,4726,11523,01.216,551
2023-03-10T15:26:13,42.805,6.029,CST-1368DR,4357,4720,11506,01.222,551
2023-03-10T15:29:15,42.805,6.029,CST-1368DR,4358,4734,11539,01.210,551
2023-03-10T15:32:17,42.805,6.029,CST-1368DR,4357,4730,11532,01.213,551
2023-03-10T15:35:18,42.805,6.029,CST-1368DR,4357,4734,11542,01.209,551
2023-03-10T15:38:20,42.805,6.029,CST-1368DR,4357,4735,11544,01.209,551
2023-03-10T15:41:21,42.805,6.029,CST-1368DR,4357,4720,11508,01.221,551
2023-03-10T15:44:23,42.805,6.029,CST-1368DR,4357,4722,11512,01.220,551
2023-03-10T15:47:25,42.805,6.029,CST-1368DR,4357,4721,11509,01.221,551
2023-03-10T15:50:26,42.805,6.029,CST-1368DR,4357,4726,11522,01.216,551
2023-03-10T15:53:28,42.805,6.029,CST-1368DR,4357,4725,11520,01.217,551
2023-03-10T15:56:29,42.805,6.029,CST-1368DR,4357,4727,11525,01.215,551
2023-03-10T15:59:31,42.805,6.029,CST-1368DR,4357,4727,11525,01.215,551
2023-03-10T16:02:32,42.805,6.029,CST-1368DR,4357,4719,11506,01.222,551
2023-03-10T16:05:34,42.805,6.029,CST-1368DR,4357,4722,11511,01.220,551
2023-03-10T16:08:36,42.805,6.029,CST-1368DR,4357,4719,11505,01.222,551
2023-03-10T16:11:37,42.805,6.029,CST-1368DR,4357,4717,11500,01.224,551
2023-03-10T16:14:39,42.805,6.029,CST-1368DR,4357,4720,11508,01.221,551
2023-03-10T16:17:40,42.805,6.029,CST-1368DR,4357,4720,11508,01.221,551
2023-03-10T16:20:42,42.805,6.029,CST-1368DR,4357,4720,11508,01.221,551
2023-03-10T16:23:43,42.805,6.029,CST-1368DR,4357,4720,11508,01.221,551
2023-03-10T16:26:45,42.805,6.029,CST-1368DR,4357,4720,11508,01.221,551
2023-03-10T16:29:47,42.805,6.029,CST-1368DR,4357,4721,11509,01.221,551
2023-03-10T16:32:48,42.805,6.029,CST-1368DR,4357,4720,11506,01.222,551
2023-03-10T16:35:50,42.805,6.029,CST-1368DR,4357,4723,11514,01.219,551